Year,Month,Day,Hour,Minute,Value (Times are PST for temperature in C)
2016,08,08,00,00,13.60
2016,08,08,00,01,13.60
2016,08,08,00,02,13.60
2016,08,08,00,03,13.60
2016,08,08,00,04,13.60
2016,08,08,00,05,13.60
2016,08,08,00,06,13.50
2016,08,08,00,07,13.50
2016,08,08,00,08,13.50
2016,08,08,00,09,13.40
2016,08,08,00,10,13.40
2016,08,08,00,11,13.40
2016,08,08,00,12,13.40
2016,08,08,00,13,13.40
2016,08,08,00,14,13.40
2016,08,08,00,15,13.40
2016,08,08,00,16,13.30
2016,08,08,00,17,13.30
2016,08,08,00,18,13.30
2016,08,08,00,19,13.30
2016,08,08,00,20,13.30
2016,08,08,00,21,13.20
2016,08,08,00,22,13.20
2016,08,08,00,23,13.20
2016,08,08,00,24,13.20
2016,08,08,00,25,13.20
2016,08,08,00,26,13.20
2016,08,08,00,27,13.10
2016,08,08,00,28,13.10
2016,08,08,00,29,13.10
2016,08,08,00,30,13.20
2016,08,08,00,31,13.10
2016,08,08,00,32,13.10
2016,08,08,00,33,13.10
2016,08,08,00,34,13.10
2016,08,08,00,35,13.10
2016,08,08,00,36,13.00
2016,08,08,00,37,13.00
2016,08,08,00,38,13.00
2016,08,08,00,39,13.00
2016,08,08,00,40,13.00
2016,08,08,00,41,13.00
2016,08,08,00,42,13.00
2016,08,08,00,43,12.90
2016,08,08,00,44,13.00
2016,08,08,00,45,12.90
2016,08,08,00,46,12.90
2016,08,08,00,47,12.90
2016,08,08,00,48,12.90
2016,08,08,00,49,12.90
2016,08,08,00,50,12.90
2016,08,08,00,51,12.90
2016,08,08,00,52,12.90
2016,08,08,00,53,12.80
2016,08,08,00,54,12.80
2016,08,08,00,55,12.80
2016,08,08,00,56,12.80
2016,08,08,00,57,12.80
2016,08,08,00,58,12.80
2016,08,08,00,59,12.80
2016,08,08,01,00,12.80
2016,08,08,01,01,12.80
2016,08,08,01,02,12.80
2016,08,08,01,03,12.80
2016,08,08,01,04,12.80
2016,08,08,01,05,12.80
2016,08,08,01,06,12.80
2016,08,08,01,07,12.80
2016,08,08,01,08,12.80
2016,08,08,01,09,12.80
2016,08,08,01,10,12.80
2016,08,08,01,11,12.80
2016,08,08,01,12,12.80
2016,08,08,01,13,12.80
2016,08,08,01,14,12.80
2016,08,08,01,15,12.80
2016,08,08,01,16,12.80
2016,08,08,01,17,12.80
2016,08,08,01,18,12.80
2016,08,08,01,19,12.80
2016,08,08,01,20,12.80
2016,08,08,01,21,12.80
2016,08,08,01,22,12.80
2016,08,08,01,23,12.80
2016,08,08,01,24,12.80
2016,08,08,01,25,12.80
2016,08,08,01,26,12.80
2016,08,08,01,27,12.80
2016,08,08,01,28,12.70
2016,08,08,01,29,12.70
2016,08,08,01,30,12.70
2016,08,08,01,31,12.70
2016,08,08,01,32,12.70
2016,08,08,01,33,12.70
2016,08,08,01,34,12.60
2016,08,08,01,35,12.60
2016,08,08,01,36,12.60
2016,08,08,01,37,12.60
2016,08,08,01,38,12.60
2016,08,08,01,39,12.50
2016,08,08,01,40,12.50
2016,08,08,01,41,12.50
2016,08,08,01,42,12.50
2016,08,08,01,43,12.50
2016,08,08,01,44,12.50
2016,08,08,01,45,12.50
2016,08,08,01,46,12.50
2016,08,08,01,47,12.50
2016,08,08,01,48,12.50
2016,08,08,01,49,12.50
2016,08,08,01,50,12.50
2016,08,08,01,51,12.50
2016,08,08,01,52,12.60
2016,08,08,01,53,12.60
2016,08,08,01,54,12.60
2016,08,08,01,55,12.60
2016,08,08,01,56,12.70
2016,08,08,01,57,12.70
2016,08,08,01,58,12.70
2016,08,08,01,59,12.70
2016,08,08,02,00,12.70
2016,08,08,02,01,12.70
2016,08,08,02,02,12.70
2016,08,08,02,03,12.70
2016,08,08,02,04,12.70
2016,08,08,02,05,12.70
2016,08,08,02,06,12.70
2016,08,08,02,07,12.70
2016,08,08,02,08,12.70
2016,08,08,02,09,12.80
2016,08,08,02,10,12.80
2016,08,08,02,11,12.80
2016,08,08,02,12,12.80
2016,08,08,02,13,12.80
2016,08,08,02,14,12.80
2016,08,08,02,15,12.80
2016,08,08,02,16,12.80
2016,08,08,02,17,12.80
2016,08,08,02,18,12.80
2016,08,08,02,19,12.80
2016,08,08,02,20,12.80
2016,08,08,02,21,12.80
2016,08,08,02,22,12.80
2016,08,08,02,23,12.70
2016,08,08,02,24,12.70
2016,08,08,02,25,12.70
2016,08,08,02,26,12.70
2016,08,08,02,27,12.70
2016,08,08,02,28,12.70
2016,08,08,02,29,12.70
2016,08,08,02,30,12.70
2016,08,08,02,31,12.70
2016,08,08,02,32,12.70
2016,08,08,02,33,12.70
2016,08,08,02,34,12.70
2016,08,08,02,35,12.70
2016,08,08,02,36,12.70
2016,08,08,02,37,12.70
2016,08,08,02,38,12.70
2016,08,08,02,39,12.70
2016,08,08,02,40,12.70
2016,08,08,02,41,12.60
2016,08,08,02,42,12.60
2016,08,08,02,43,12.60
2016,08,08,02,44,12.60
2016,08,08,02,45,12.60
2016,08,08,02,46,12.60
2016,08,08,02,47,12.60
2016,08,08,02,48,12.60
2016,08,08,02,49,12.60
2016,08,08,02,50,12.60
2016,08,08,02,51,12.60
2016,08,08,02,52,12.60
2016,08,08,02,53,12.60
2016,08,08,02,54,12.60
2016,08,08,02,55,12.60
2016,08,08,02,56,12.60
2016,08,08,02,57,12.60
2016,08,08,02,58,12.60
2016,08,08,02,59,12.60
2016,08,08,03,00,12.50
2016,08,08,03,01,12.50
2016,08,08,03,02,12.50
2016,08,08,03,03,12.40
2016,08,08,03,04,12.40
2016,08,08,03,05,12.40
2016,08,08,03,06,12.40
2016,08,08,03,07,12.40
2016,08,08,03,08,12.40
2016,08,08,03,09,12.30
2016,08,08,03,10,12.30
2016,08,08,03,11,12.30
2016,08,08,03,12,12.30
2016,08,08,03,13,12.30
2016,08,08,03,14,12.30
2016,08,08,03,15,12.20
2016,08,08,03,16,12.20
2016,08,08,03,17,12.20
2016,08,08,03,18,12.20
2016,08,08,03,19,12.20
2016,08,08,03,20,12.20
2016,08,08,03,21,12.20
2016,08,08,03,22,12.20
2016,08,08,03,23,12.20
2016,08,08,03,24,12.10
2016,08,08,03,25,12.10
2016,08,08,03,26,12.10
2016,08,08,03,27,12.10
2016,08,08,03,28,12.10
2016,08,08,03,29,12.10
2016,08,08,03,30,12.10
2016,08,08,03,31,12.10
2016,08,08,03,32,12.00
2016,08,08,03,33,12.00
2016,08,08,03,34,12.00
2016,08,08,03,35,12.00
2016,08,08,03,36,11.90
2016,08,08,03,37,11.90
2016,08,08,03,38,11.90
2016,08,08,03,39,11.90
2016,08,08,03,40,11.90
2016,08,08,03,41,11.90
2016,08,08,03,42,11.90
2016,08,08,03,43,11.90
2016,08,08,03,44,11.90
2016,08,08,03,45,11.90
2016,08,08,03,46,11.90
2016,08,08,03,47,11.90
2016,08,08,03,48,11.90
2016,08,08,03,49,11.90
2016,08,08,03,50,11.90
2016,08,08,03,51,11.90
2016,08,08,03,52,11.80
2016,08,08,03,53,11.80
2016,08,08,03,54,11.80
2016,08,08,03,55,11.80
2016,08,08,03,56,11.80
2016,08,08,03,57,11.80
2016,08,08,03,58,11.80
2016,08,08,03,59,11.80
2016,08,08,04,00,11.80
2016,08,08,04,01,11.80
2016,08,08,04,02,11.80
2016,08,08,04,03,11.80
2016,08,08,04,04,11.80
2016,08,08,04,05,11.80
2016,08,08,04,06,11.80
2016,08,08,04,07,11.80
2016,08,08,04,08,11.80
2016,08,08,04,09,11.80
2016,08,08,04,10,11.80
2016,08,08,04,11,11.80
2016,08,08,04,12,11.80
2016,08,08,04,13,11.80
2016,08,08,04,14,11.80
2016,08,08,04,15,11.80
2016,08,08,04,16,11.90
2016,08,08,04,17,11.90
2016,08,08,04,18,11.90
2016,08,08,04,19,12.00
2016,08,08,04,20,12.00
2016,08,08,04,21,12.00
2016,08,08,04,22,12.00
2016,08,08,04,23,12.00
2016,08,08,04,24,12.00
2016,08,08,04,25,12.00
2016,08,08,04,26,12.00
2016,08,08,04,27,12.10
2016,08,08,04,28,12.10
2016,08,08,04,29,12.10
2016,08,08,04,30,12.10
2016,08,08,04,31,12.10
2016,08,08,04,32,12.10
2016,08,08,04,33,12.10
2016,08,08,04,34,12.10
2016,08,08,04,35,12.10
2016,08,08,04,36,12.10
2016,08,08,04,37,12.10
2016,08,08,04,38,12.10
2016,08,08,04,39,12.10
2016,08,08,04,40,12.10
2016,08,08,04,41,12.10
2016,08,08,04,42,12.10
2016,08,08,04,43,12.10
2016,08,08,04,44,12.10
2016,08,08,04,45,12.10
2016,08,08,04,46,12.10
2016,08,08,04,47,12.10
2016,08,08,04,48,12.10
2016,08,08,04,49,12.10
2016,08,08,04,50,12.10
2016,08,08,04,51,12.00
2016,08,08,04,52,12.00
2016,08,08,04,53,12.00
2016,08,08,04,54,12.00
2016,08,08,04,55,12.00
2016,08,08,04,56,12.00
2016,08,08,04,57,12.00
2016,08,08,04,58,12.00
2016,08,08,04,59,12.00
2016,08,08,05,00,12.00
2016,08,08,05,01,12.00
2016,08,08,05,02,11.90
2016,08,08,05,03,12.00
2016,08,08,05,04,12.00
2016,08,08,05,05,12.00
2016,08,08,05,06,12.00
2016,08,08,05,07,12.00
2016,08,08,05,08,12.00
2016,08,08,05,09,12.00
2016,08,08,05,10,12.00
2016,08,08,05,11,11.90
2016,08,08,05,12,11.90
2016,08,08,05,13,11.90
2016,08,08,05,14,11.90
2016,08,08,05,15,11.90
2016,08,08,05,16,11.90
2016,08,08,05,17,11.90
2016,08,08,05,18,11.90
2016,08,08,05,19,11.90
2016,08,08,05,20,11.90
2016,08,08,05,21,11.90
2016,08,08,05,22,11.90
2016,08,08,05,23,11.90
2016,08,08,05,24,11.90
2016,08,08,05,25,11.90
2016,08,08,05,26,11.90
2016,08,08,05,27,11.90
2016,08,08,05,28,11.80
2016,08,08,05,29,11.80
2016,08,08,05,30,11.80
2016,08,08,05,31,11.80
2016,08,08,05,32,11.80
2016,08,08,05,33,11.80
2016,08,08,05,34,11.80
2016,08,08,05,35,11.80
2016,08,08,05,36,11.70
2016,08,08,05,37,11.70
2016,08,08,05,38,11.70
2016,08,08,05,39,11.70
2016,08,08,05,40,11.70
2016,08,08,05,41,11.70
2016,08,08,05,42,11.70
2016,08,08,05,43,11.70
2016,08,08,05,44,11.70
2016,08,08,05,45,11.60
2016,08,08,05,46,11.60
2016,08,08,05,47,11.50
2016,08,08,05,48,11.50
2016,08,08,05,49,11.40
2016,08,08,05,50,11.40
2016,08,08,05,51,11.40
2016,08,08,05,52,11.40
2016,08,08,05,53,11.30
2016,08,08,05,54,11.30
2016,08,08,05,55,11.30
2016,08,08,05,56,11.40
2016,08,08,05,57,11.40
2016,08,08,05,58,11.40
2016,08,08,05,59,11.40
2016,08,08,06,00,11.40
2016,08,08,06,01,11.40
2016,08,08,06,02,11.40
2016,08,08,06,03,11.40
2016,08,08,06,04,11.40
2016,08,08,06,05,11.40
2016,08,08,06,06,11.40
2016,08,08,06,07,11.40
2016,08,08,06,08,11.40
2016,08,08,06,09,11.30
2016,08,08,06,10,11.30
2016,08,08,06,11,11.30
2016,08,08,06,12,11.30
2016,08,08,06,13,11.30
2016,08,08,06,14,11.30
2016,08,08,06,15,11.30
2016,08,08,06,16,11.30
2016,08,08,06,17,11.30
2016,08,08,06,18,11.30
2016,08,08,06,19,11.30
2016,08,08,06,20,11.30
2016,08,08,06,21,11.30
2016,08,08,06,22,11.30
2016,08,08,06,23,11.30
2016,08,08,06,24,11.30
2016,08,08,06,25,11.30
2016,08,08,06,26,11.30
2016,08,08,06,27,11.30
2016,08,08,06,28,11.30
2016,08,08,06,29,11.30
2016,08,08,06,30,11.30
2016,08,08,06,31,11.30
2016,08,08,06,32,11.30
2016,08,08,06,33,11.30
2016,08,08,06,34,11.30
2016,08,08,06,35,11.30
2016,08,08,06,36,11.30
2016,08,08,06,37,11.30
2016,08,08,06,38,11.30
2016,08,08,06,39,11.30
2016,08,08,06,40,11.30
2016,08,08,06,41,11.40
2016,08,08,06,42,11.40
2016,08,08,06,43,11.40
2016,08,08,06,44,11.40
2016,08,08,06,45,11.50
2016,08,08,06,46,11.60
2016,08,08,06,47,11.60
2016,08,08,06,48,11.60
2016,08,08,06,49,11.70
2016,08,08,06,50,11.70
2016,08,08,06,51,11.70
2016,08,08,06,52,11.80
2016,08,08,06,53,11.80
2016,08,08,06,54,11.80
2016,08,08,06,55,11.80
2016,08,08,06,56,11.80
2016,08,08,06,57,11.80
2016,08,08,06,58,11.80
2016,08,08,06,59,11.80
2016,08,08,07,00,11.80
2016,08,08,07,01,11.80
2016,08,08,07,02,11.80
2016,08,08,07,03,11.90
2016,08,08,07,04,11.90
2016,08,08,07,05,11.90
2016,08,08,07,06,12.00
2016,08,08,07,07,12.00
2016,08,08,07,08,12.00
2016,08,08,07,09,12.10
2016,08,08,07,10,12.10
2016,08,08,07,11,12.20
2016,08,08,07,12,12.20
2016,08,08,07,13,12.20
2016,08,08,07,14,12.20
2016,08,08,07,15,12.30
2016,08,08,07,16,12.30
2016,08,08,07,17,12.30
2016,08,08,07,18,12.40
2016,08,08,07,19,12.40
2016,08,08,07,20,12.50
2016,08,08,07,21,12.60
2016,08,08,07,22,12.60
2016,08,08,07,23,12.60
2016,08,08,07,24,12.70
2016,08,08,07,25,12.70
2016,08,08,07,26,12.80
2016,08,08,07,27,12.80
2016,08,08,07,28,12.90
2016,08,08,07,29,13.00
2016,08,08,07,30,13.10
2016,08,08,07,31,13.10
2016,08,08,07,32,13.20
2016,08,08,07,33,13.30
2016,08,08,07,34,13.30
2016,08,08,07,35,13.40
2016,08,08,07,36,13.50
2016,08,08,07,37,13.60
2016,08,08,07,38,13.70
2016,08,08,07,39,13.80
2016,08,08,07,40,13.80
2016,08,08,07,41,13.90
2016,08,08,07,42,14.00
2016,08,08,07,43,14.10
2016,08,08,07,44,14.20
2016,08,08,07,45,14.30
2016,08,08,07,46,14.30
2016,08,08,07,47,14.40
2016,08,08,07,48,14.40
2016,08,08,07,49,14.50
2016,08,08,07,50,14.50
2016,08,08,07,51,14.60
2016,08,08,07,52,14.60
2016,08,08,07,53,14.70
2016,08,08,07,54,14.70
2016,08,08,07,55,14.80
2016,08,08,07,56,14.90
2016,08,08,07,57,15.00
2016,08,08,07,58,15.00
2016,08,08,07,59,15.10
2016,08,08,08,00,15.20
2016,08,08,08,01,15.30
2016,08,08,08,02,15.30
2016,08,08,08,03,15.40
2016,08,08,08,04,15.40
2016,08,08,08,05,15.50
2016,08,08,08,06,15.50
2016,08,08,08,07,15.50
2016,08,08,08,08,15.60
2016,08,08,08,09,15.60
2016,08,08,08,10,15.60
2016,08,08,08,11,15.70
2016,08,08,08,12,15.70
2016,08,08,08,13,15.80
2016,08,08,08,14,15.80
2016,08,08,08,15,15.90
2016,08,08,08,16,16.00
2016,08,08,08,17,16.00
2016,08,08,08,18,16.10
2016,08,08,08,19,16.10
2016,08,08,08,20,16.20
2016,08,08,08,21,16.20
2016,08,08,08,22,16.30
2016,08,08,08,23,16.30
2016,08,08,08,24,16.40
2016,08,08,08,25,16.40
2016,08,08,08,26,16.40
2016,08,08,08,27,16.50
2016,08,08,08,28,16.50
2016,08,08,08,29,16.50
2016,08,08,08,30,16.50
2016,08,08,08,31,16.60
2016,08,08,08,32,16.60
2016,08,08,08,33,16.60
2016,08,08,08,34,16.70
2016,08,08,08,35,16.70
2016,08,08,08,36,16.80
2016,08,08,08,37,16.90
2016,08,08,08,38,16.90
2016,08,08,08,39,17.00
2016,08,08,08,40,17.00
2016,08,08,08,41,17.00
2016,08,08,08,42,17.10
2016,08,08,08,43,17.10
2016,08,08,08,44,17.20
2016,08,08,08,45,17.30
2016,08,08,08,46,17.30
2016,08,08,08,47,17.40
2016,08,08,08,48,17.50
2016,08,08,08,49,17.40
2016,08,08,08,50,17.40
2016,08,08,08,51,17.40
2016,08,08,08,52,17.40
2016,08,08,08,53,17.40
2016,08,08,08,54,17.40
2016,08,08,08,55,17.30
2016,08,08,08,56,17.30
2016,08,08,08,57,17.30
2016,08,08,08,58,17.30
2016,08,08,08,59,17.30
2016,08,08,09,00,17.30
2016,08,08,09,01,17.30
2016,08,08,09,02,17.30
2016,08,08,09,03,17.30
2016,08,08,09,04,17.40
2016,08,08,09,05,17.40
2016,08,08,09,06,17.40
2016,08,08,09,07,17.40
2016,08,08,09,08,17.40
2016,08,08,09,09,17.40
2016,08,08,09,10,17.40
2016,08,08,09,11,17.30
2016,08,08,09,12,17.30
2016,08,08,09,13,17.30
2016,08,08,09,14,17.30
2016,08,08,09,15,17.40
2016,08,08,09,16,17.40
2016,08,08,09,17,17.40
2016,08,08,09,18,17.40
2016,08,08,09,19,17.50
2016,08,08,09,20,17.50
2016,08,08,09,21,17.60
2016,08,08,09,22,17.60
2016,08,08,09,23,17.60
2016,08,08,09,24,17.60
2016,08,08,09,25,17.60
2016,08,08,09,26,17.60
2016,08,08,09,27,17.60
2016,08,08,09,28,17.60
2016,08,08,09,29,17.60
2016,08,08,09,30,17.60
2016,08,08,09,31,17.70
2016,08,08,09,32,17.80
2016,08,08,09,33,17.90
2016,08,08,09,34,17.90
2016,08,08,09,35,18.00
2016,08,08,09,36,18.10
2016,08,08,09,37,18.20
2016,08,08,09,38,18.30
2016,08,08,09,39,18.30
2016,08,08,09,40,18.40
2016,08,08,09,41,18.40
2016,08,08,09,42,18.50
2016,08,08,09,43,18.60
2016,08,08,09,44,18.60
2016,08,08,09,45,18.60
2016,08,08,09,46,18.60
2016,08,08,09,47,18.60
2016,08,08,09,48,18.60
2016,08,08,09,49,18.70
2016,08,08,09,50,18.70
2016,08,08,09,51,18.70
2016,08,08,09,52,18.70
2016,08,08,09,53,18.70
2016,08,08,09,54,18.60
2016,08,08,09,55,18.40
2016,08,08,09,56,18.30
2016,08,08,09,57,18.30
2016,08,08,09,58,18.30
2016,08,08,09,59,18.30
2016,08,08,10,00,18.30
2016,08,08,10,01,18.40
2016,08,08,10,02,18.40
2016,08,08,10,03,18.50
2016,08,08,10,04,18.50
2016,08,08,10,05,18.50
2016,08,08,10,06,18.50
2016,08,08,10,07,18.50
2016,08,08,10,08,18.40
2016,08,08,10,09,18.40
2016,08,08,10,10,18.40
2016,08,08,10,11,18.30
2016,08,08,10,12,18.10
2016,08,08,10,13,18.00
2016,08,08,10,14,17.80
2016,08,08,10,15,17.70
2016,08,08,10,16,17.60
2016,08,08,10,17,17.60
2016,08,08,10,18,17.50
2016,08,08,10,19,17.50
2016,08,08,10,20,17.50
2016,08,08,10,21,17.50
2016,08,08,10,22,17.50
2016,08,08,10,23,17.60
2016,08,08,10,24,17.60
2016,08,08,10,25,17.60
2016,08,08,10,26,17.60
2016,08,08,10,27,17.60
2016,08,08,10,28,17.70
2016,08,08,10,29,17.70
2016,08,08,10,30,17.80
2016,08,08,10,31,17.90
2016,08,08,10,32,18.00
2016,08,08,10,33,18.20
2016,08,08,10,34,18.30
2016,08,08,10,35,18.30
2016,08,08,10,36,18.30
2016,08,08,10,37,18.20
2016,08,08,10,38,18.20
2016,08,08,10,39,18.20
2016,08,08,10,40,18.20
2016,08,08,10,41,18.20
2016,08,08,10,42,18.30
2016,08,08,10,43,18.40
2016,08,08,10,44,18.50
2016,08,08,10,45,18.50
2016,08,08,10,46,18.40
2016,08,08,10,47,18.40
2016,08,08,10,48,18.40
2016,08,08,10,49,18.50
2016,08,08,10,50,18.60
2016,08,08,10,51,18.60
2016,08,08,10,52,18.60
2016,08,08,10,53,18.60
2016,08,08,10,54,18.70
2016,08,08,10,55,18.70
2016,08,08,10,56,18.70
2016,08,08,10,57,18.60
2016,08,08,10,58,18.50
2016,08,08,10,59,18.50
2016,08,08,11,00,18.50
2016,08,08,11,01,18.50
2016,08,08,11,02,18.50
2016,08,08,11,03,18.40
2016,08,08,11,04,18.40
2016,08,08,11,05,18.30
2016,08,08,11,06,18.20
2016,08,08,11,07,18.30
2016,08,08,11,08,18.30
2016,08,08,11,09,18.30
2016,08,08,11,10,18.20
2016,08,08,11,11,18.20
2016,08,08,11,12,18.20
2016,08,08,11,13,18.20
2016,08,08,11,14,18.20
2016,08,08,11,15,18.20
2016,08,08,11,16,18.10
2016,08,08,11,17,18.10
2016,08,08,11,18,18.10
2016,08,08,11,19,18.20
2016,08,08,11,20,18.20
2016,08,08,11,21,18.30
2016,08,08,11,22,18.30
2016,08,08,11,23,18.30
2016,08,08,11,24,18.30
2016,08,08,11,25,18.30
2016,08,08,11,26,18.40
2016,08,08,11,27,18.50
2016,08,08,11,28,18.60
2016,08,08,11,29,18.60
2016,08,08,11,30,18.60
2016,08,08,11,31,18.70
2016,08,08,11,32,18.70
2016,08,08,11,33,18.70
2016,08,08,11,34,18.60
2016,08,08,11,35,18.60
2016,08,08,11,36,18.60
2016,08,08,11,37,18.60
2016,08,08,11,38,18.70
2016,08,08,11,39,18.70
2016,08,08,11,40,18.70
2016,08,08,11,41,18.70
2016,08,08,11,42,18.70
2016,08,08,11,43,18.80
2016,08,08,11,44,18.80
2016,08,08,11,45,18.90
2016,08,08,11,46,18.90
2016,08,08,11,47,18.90
2016,08,08,11,48,18.90
2016,08,08,11,49,18.90
2016,08,08,11,50,18.90
2016,08,08,11,51,19.00
2016,08,08,11,52,19.00
2016,08,08,11,53,18.90
2016,08,08,11,54,18.90
2016,08,08,11,55,19.00
2016,08,08,11,56,19.10
2016,08,08,11,57,19.20
2016,08,08,11,58,19.20
2016,08,08,11,59,19.30
2016,08,08,12,00,19.40
2016,08,08,12,01,19.40
2016,08,08,12,02,19.20
2016,08,08,12,03,19.10
2016,08,08,12,04,19.10
2016,08,08,12,05,19.10
2016,08,08,12,06,19.20
2016,08,08,12,07,19.30
2016,08,08,12,08,19.40
2016,08,08,12,09,19.50
2016,08,08,12,10,19.60
2016,08,08,12,11,19.60
2016,08,08,12,12,19.50
2016,08,08,12,13,19.40
2016,08,08,12,14,19.40
2016,08,08,12,15,19.40
2016,08,08,12,16,19.40
2016,08,08,12,17,19.30
2016,08,08,12,18,19.20
2016,08,08,12,19,19.20
2016,08,08,12,20,19.20
2016,08,08,12,21,19.10
2016,08,08,12,22,19.20
2016,08,08,12,23,19.20
2016,08,08,12,24,19.30
2016,08,08,12,25,19.30
2016,08,08,12,26,19.40
2016,08,08,12,27,19.40
2016,08,08,12,28,19.50
2016,08,08,12,29,19.60
2016,08,08,12,30,19.70
2016,08,08,12,31,19.80
2016,08,08,12,32,19.90
2016,08,08,12,33,20.00
2016,08,08,12,34,20.10
2016,08,08,12,35,20.10
2016,08,08,12,36,20.10
2016,08,08,12,37,20.10
2016,08,08,12,38,20.10
2016,08,08,12,39,20.10
2016,08,08,12,40,20.10
2016,08,08,12,41,20.00
2016,08,08,12,42,20.00
2016,08,08,12,43,19.90
2016,08,08,12,44,19.80
2016,08,08,12,45,19.80
2016,08,08,12,46,19.70
2016,08,08,12,47,19.70
2016,08,08,12,48,19.70
2016,08,08,12,49,19.70
2016,08,08,12,50,19.70
2016,08,08,12,51,19.70
2016,08,08,12,52,19.70
2016,08,08,12,53,19.60
2016,08,08,12,54,19.50
2016,08,08,12,55,19.50
2016,08,08,12,56,19.50
2016,08,08,12,57,19.60
2016,08,08,12,58,19.70
2016,08,08,12,59,19.80
2016,08,08,13,00,20.10
2016,08,08,13,01,20.20
2016,08,08,13,02,20.10
2016,08,08,13,03,19.90
2016,08,08,13,04,19.70
2016,08,08,13,05,19.70
2016,08,08,13,06,19.70
2016,08,08,13,07,19.90
2016,08,08,13,08,20.00
2016,08,08,13,09,20.10
2016,08,08,13,10,20.30
2016,08,08,13,11,20.30
2016,08,08,13,12,20.40
2016,08,08,13,13,20.40
2016,08,08,13,14,20.30
2016,08,08,13,15,20.20
2016,08,08,13,16,20.00
2016,08,08,13,17,19.90
2016,08,08,13,18,19.80
2016,08,08,13,19,19.80
2016,08,08,13,20,19.80
2016,08,08,13,21,19.80
2016,08,08,13,22,19.80
2016,08,08,13,23,19.90
2016,08,08,13,24,19.90
2016,08,08,13,25,19.90
2016,08,08,13,26,20.00
2016,08,08,13,27,20.10
2016,08,08,13,28,20.10
2016,08,08,13,29,20.20
2016,08,08,13,30,20.30
2016,08,08,13,31,20.30
2016,08,08,13,32,20.30
2016,08,08,13,33,20.40
2016,08,08,13,34,20.50
2016,08,08,13,35,20.50
2016,08,08,13,36,20.40
2016,08,08,13,37,20.40
2016,08,08,13,38,20.40
2016,08,08,13,39,20.40
2016,08,08,13,40,20.50
2016,08,08,13,41,20.60
2016,08,08,13,42,20.60
2016,08,08,13,43,20.70
2016,08,08,13,44,20.80
2016,08,08,13,45,20.80
2016,08,08,13,46,20.70
2016,08,08,13,47,20.70
2016,08,08,13,48,20.70
2016,08,08,13,49,20.60
2016,08,08,13,50,20.50
2016,08,08,13,51,20.40
2016,08,08,13,52,20.30
2016,08,08,13,53,20.10
2016,08,08,13,54,20.00
2016,08,08,13,55,19.90
2016,08,08,13,56,20.10
2016,08,08,13,57,20.20
2016,08,08,13,58,20.40
2016,08,08,13,59,20.60
2016,08,08,14,00,20.70
2016,08,08,14,01,20.60
2016,08,08,14,02,20.50
2016,08,08,14,03,20.40
2016,08,08,14,04,20.30
2016,08,08,14,05,20.30
2016,08,08,14,06,20.40
2016,08,08,14,07,20.50
2016,08,08,14,08,20.60
2016,08,08,14,09,20.70
2016,08,08,14,10,20.70
2016,08,08,14,11,20.70
2016,08,08,14,12,20.80
2016,08,08,14,13,20.80
2016,08,08,14,14,20.70
2016,08,08,14,15,20.60
2016,08,08,14,16,20.50
2016,08,08,14,17,20.60
2016,08,08,14,18,20.50
2016,08,08,14,19,20.40
2016,08,08,14,20,20.30
2016,08,08,14,21,20.40
2016,08,08,14,22,20.50
2016,08,08,14,23,20.60
2016,08,08,14,24,20.70
2016,08,08,14,25,20.80
2016,08,08,14,26,20.90
2016,08,08,14,27,21.10
2016,08,08,14,28,21.30
2016,08,08,14,29,21.20
2016,08,08,14,30,21.10
2016,08,08,14,31,21.00
2016,08,08,14,32,20.90
2016,08,08,14,33,20.80
2016,08,08,14,34,20.70
2016,08,08,14,35,20.70
2016,08,08,14,36,20.80
2016,08,08,14,37,20.70
2016,08,08,14,38,20.60
2016,08,08,14,39,20.60
2016,08,08,14,40,20.70
2016,08,08,14,41,20.80
2016,08,08,14,42,20.80
2016,08,08,14,43,20.80
2016,08,08,14,44,20.90
2016,08,08,14,45,21.00
2016,08,08,14,46,21.20
2016,08,08,14,47,21.50
2016,08,08,14,48,21.60
2016,08,08,14,49,21.70
2016,08,08,14,50,21.80
2016,08,08,14,51,21.80
2016,08,08,14,52,21.70
2016,08,08,14,53,21.50
2016,08,08,14,54,21.40
2016,08,08,14,55,21.30
2016,08,08,14,56,21.20
2016,08,08,14,57,21.20
2016,08,08,14,58,21.10
2016,08,08,14,59,20.90
2016,08,08,15,00,20.80
2016,08,08,15,01,20.80
2016,08,08,15,02,20.80
2016,08,08,15,03,20.90
2016,08,08,15,04,20.90
2016,08,08,15,05,20.90
2016,08,08,15,06,21.00
2016,08,08,15,07,21.10
2016,08,08,15,08,21.00
2016,08,08,15,09,20.90
2016,08,08,15,10,20.90
2016,08,08,15,11,20.90
2016,08,08,15,12,21.10
2016,08,08,15,13,21.10
2016,08,08,15,14,21.00
2016,08,08,15,15,20.90
2016,08,08,15,16,20.80
2016,08,08,15,17,20.80
2016,08,08,15,18,20.80
2016,08,08,15,19,20.90
2016,08,08,15,20,21.00
2016,08,08,15,21,21.10
2016,08,08,15,22,21.20
2016,08,08,15,23,21.40
2016,08,08,15,24,21.40
2016,08,08,15,25,21.40
2016,08,08,15,26,21.30
2016,08,08,15,27,21.20
2016,08,08,15,28,21.20
2016,08,08,15,29,21.30
2016,08,08,15,30,21.30
2016,08,08,15,31,21.30
2016,08,08,15,32,21.20
2016,08,08,15,33,21.20
2016,08,08,15,34,21.20
2016,08,08,15,35,21.00
2016,08,08,15,36,21.00
2016,08,08,15,37,21.00
2016,08,08,15,38,21.10
2016,08,08,15,39,21.10
2016,08,08,15,40,21.20
2016,08,08,15,41,21.40
2016,08,08,15,42,21.50
2016,08,08,15,43,21.60
2016,08,08,15,44,21.60
2016,08,08,15,45,21.70
2016,08,08,15,46,21.60
2016,08,08,15,47,21.60
2016,08,08,15,48,21.50
2016,08,08,15,49,21.40
2016,08,08,15,50,21.20
2016,08,08,15,51,21.20
2016,08,08,15,52,21.20
2016,08,08,15,53,21.20
2016,08,08,15,54,21.20
2016,08,08,15,55,21.30
2016,08,08,15,56,21.30
2016,08,08,15,57,21.30
2016,08,08,15,58,21.30
2016,08,08,15,59,21.30
2016,08,08,16,00,21.30
2016,08,08,16,01,21.30
2016,08,08,16,02,21.30
2016,08,08,16,03,21.30
2016,08,08,16,04,21.30
2016,08,08,16,05,21.30
2016,08,08,16,06,21.30
2016,08,08,16,07,21.40
2016,08,08,16,08,21.30
2016,08,08,16,09,21.40
2016,08,08,16,10,21.50
2016,08,08,16,11,21.60
2016,08,08,16,12,21.60
2016,08,08,16,13,21.70
2016,08,08,16,14,21.70
2016,08,08,16,15,21.70
2016,08,08,16,16,21.70
2016,08,08,16,17,21.80
2016,08,08,16,18,21.80
2016,08,08,16,19,21.80
2016,08,08,16,20,21.70
2016,08,08,16,21,21.70
2016,08,08,16,22,21.60
2016,08,08,16,23,21.50
2016,08,08,16,24,21.40
2016,08,08,16,25,21.30
2016,08,08,16,26,21.30
2016,08,08,16,27,21.40
2016,08,08,16,28,21.50
2016,08,08,16,29,21.60
2016,08,08,16,30,21.60
2016,08,08,16,31,21.60
2016,08,08,16,32,21.60
2016,08,08,16,33,21.50
2016,08,08,16,34,21.50
2016,08,08,16,35,21.40
2016,08,08,16,36,21.40
2016,08,08,16,37,21.50
2016,08,08,16,38,21.50
2016,08,08,16,39,21.60
2016,08,08,16,40,21.60
2016,08,08,16,41,21.50
2016,08,08,16,42,21.30
2016,08,08,16,43,21.20
2016,08,08,16,44,21.00
2016,08,08,16,45,21.00
2016,08,08,16,46,21.00
2016,08,08,16,47,21.10
2016,08,08,16,48,21.10
2016,08,08,16,49,21.10
2016,08,08,16,50,21.20
2016,08,08,16,51,21.20
2016,08,08,16,52,21.20
2016,08,08,16,53,21.20
2016,08,08,16,54,21.20
2016,08,08,16,55,21.20
2016,08,08,16,56,21.20
2016,08,08,16,57,21.20
2016,08,08,16,58,21.10
2016,08,08,16,59,21.20
2016,08,08,17,00,21.20
2016,08,08,17,01,21.30
2016,08,08,17,02,21.30
2016,08,08,17,03,21.40
2016,08,08,17,04,21.50
2016,08,08,17,05,21.50
2016,08,08,17,06,21.60
2016,08,08,17,07,21.60
2016,08,08,17,08,21.50
2016,08,08,17,09,21.40
2016,08,08,17,10,21.40
2016,08,08,17,11,21.50
2016,08,08,17,12,21.50
2016,08,08,17,13,21.60
2016,08,08,17,14,21.50
2016,08,08,17,15,21.50
2016,08,08,17,16,21.40
2016,08,08,17,17,21.40
2016,08,08,17,18,21.40
2016,08,08,17,19,21.40